Location: A�t Lahcen
(32.8243°N, 5.4246°W)
Time: 01:16:29
(UTC+00:00)

H-2A R/B - Pass Details

Date: 27 January 2021
Orbit: 529 x 651 km, 98.3° (Epoch: 26 February)

Event Time Altitude Azimuth Distance (km) Brightness Sun altitude
Rises 06:38:14 0° 11° (N) 2,975 6.0 -9.1°
Reaches altitude 10° 06:40:28 10° 10° (N) 2,061 5.2 -8.6°
Maximum altitude 06:44:58 80° 285° (WNW) 662 2.6 -7.7°
Drops below altitude 10° 06:49:24 10° 197° (SSW) 2,024 5.2 -6.8°
Sets 06:51:35 0° 196° (SSW) 2,916 6.0 -6.4°
